Simultaneous Nadir Overpasses (SNOs) Predictions

Prediction of SNOs between METOP-B and NOAA-19 Satellite Orbit:

Table of predicted SNOs for the next 14.0 days since TLE Epoch: 8/17/2018
Index Date (METOP-B) Time (METOP-B) Lat,Lon (METOP-B) SZA (METOP-B ) Date (NOAA-19) Time (NOAA-19) Lat,Lon (NOAA-19) SZA (NOAA-19 ) Distance(km) Time Diff (sec)
1 08/21/2018 19:06:22 -78.64, 84.40 113.17 08/21/2018 19:05:08 -78.66, 83.77 113.18 13.98 74
2 08/21/2018 19:57:03 78.60,-108.48 66.81 08/21/2018 19:56:12 78.61,-108.60 66.80 2.59 51
3 08/21/2018 20:47:45 -78.58, 58.72 113.21 08/21/2018 20:47:07 -78.59, 58.78 113.21 1.71 38
4 08/21/2018 21:38:25 78.58,-133.93 66.81 08/21/2018 21:38:12 78.57,-133.84 66.79 2.72 13
5 08/21/2018 22:29:07 -78.56, 33.27 113.21 08/21/2018 22:29:08 -78.59, 33.30 113.19 2.92 1
6 08/21/2018 23:19:47 78.57,-159.39 66.81 08/21/2018 23:20:13 78.57,-159.32 66.81 1.41 26
7 08/22/2018 00:10:28 -78.58, 8.04 113.16 08/22/2018 00:11:08 -78.55, 8.05 113.19 3.60 40
8 08/22/2018 01:01:09 78.55, 175.16 66.81 08/22/2018 01:02:14 78.56, 175.19 66.84 1.99 65




NCC Satellite Simultaneous Nadir Overpasses (SNOs) Prediction Service
